Location: Katowice
(50.2611°N, 19.0242°E)
Time: 14:15:36
(UTC+02:00)

Explorer 7 - Pass Details

Date: 27 August 2019
Orbit: 485 x 680 km, 50.3° (Epoch: 17 September)

Event Time Altitude Azimuth Distance (km) Brightness Sun altitude
Rises 10:12:22 0° 252° (WSW) 3,015 10.3 39.0°
Reaches altitude 10° 10:14:46 10° 252° (WSW) 2,088 9.6 39.3°
Maximum altitude 10:19:36 78° 166° (SSE) 665 8.2 39.9°
Drops below altitude 10° 10:24:12 10° 81° (E) 1,995 10.3 40.4°
Sets 10:26:27 0° 80° (E) 2,870 10.9 40.7°
